{"data":{"norad_id":54225,"epoch":"2026-05-24T19:14:22.018272Z","epoch_age_seconds":91956,"freshness":"FRESH","line1":"1 54225U 22146A   26144.80164373  .00000084  00000+0  00000+0 0  9992","line2":"2 54225   0.0407 234.4848 0001975 307.8333   1.6674  1.00272308  7232","mean_motion":1.00272308,"eccentricity":0.0001975,"inclination_deg":0.0407,"raan_deg":234.4848,"arg_perigee_deg":307.8333,"mean_anomaly_deg":1.6674,"bstar":0,"rev_number":723,"period_min":1436.0894136395,"perigee_km":35778.120840337,"apogee_km":35794.775851548,"semimajor_km":42164.585345942,"source":"CELESTRAK","updated_at":"2026-05-25T13:38:14.111800Z"}}